Location: *
(51.0333°S, 178.4667°E)
Time: 10:57:24
(UTC+00:00)

STARLINK-52 - Pass Details

Date: 15 November 2019
Orbit: 443 x 445 km, 53.0° (Epoch: 09 December)

Event Time Altitude Azimuth Distance (km) Brightness Sun altitude
Rises 09:27:17 0° 251° (WSW) 2,474 7.9 -13.7°
Reaches altitude 10° 09:29:30 10° 259° (W) 1,596 6.7 -13.9°
Maximum altitude 09:32:51 37° 327° (NNW) 718 4.0 -14.2°
Enters shadow 09:34:10 27° 13° (NNE) 910 4.2 -14.3°
